sat.trackr.live / text

‹ back to catalog

HULIANWANG DIGUI-24

NORAD 63691 · 2025-086E

PAYLOAD ACTIVE UNKNOWN

§ Identity

Operator
Country
PRC
Launch date
2025-04-28
Launch site
WSC
Launch vehicle
Mass (kg)
RCS (m²)

External: N2YO · Heavens-Above · Gunter

§ Orbital elements

Epoch: 2026-09-21T21:58:04.642464Z

Period
108.73 min
Inclination
86.5023°
Eccentricity
0.0001835
Mean motion
13.24412116 rev/d
Perigee alt
1,166.5 km
Apogee alt
1,169.3 km
Semi-major
7,546.1 km
B*
-1.7153e-4
RAAN
280.7202°
Arg perigee
77.0376°
Mean anomaly
283.0963°
Rev number
6,766

§ Raw data

HULIANWANG DIGUI-241 63691U 25086E   26264.91533151 -.00000059  00000+0 -17153-3 0  99992 63691  86.5023 280.7202 0001835  77.0376 283.0963 13.24412116 67660

JSON: /api/v1/satellites/63691 · /tle

For live sub-satellite position, see the globe view (requires WebGL).

§ Visibility from observer

Set your observer location to see the next 7 days of passes ≥ 10°. The values pass through the URL so the page stays shareable.

No JS? Fill the form by hand. The geolocation button needs JavaScript.